This demonstration page uses our WeatherBlox Daily Observations layout. Learn more.

Left ArrowRight Arrow

Hourly Observations for October 26, 2015

Temp ( °F °C ) Dew Point ( °F °C ) Humidity (%) Winds ( mph kmh ) Pressure ( in mb ) Visibility ( mi km ) Precip ( " mm )
12:53 am 00:53 Clear 59 15 44 6.7 58 58 Calm 29.95 1014 10 16 0.00 0.00
1:53 am 01:53 Clear 57 13.9 44 6.7 62 62 Calm 29.96 1015 10 16 0.00 0.00
2:53 am 02:53 Clear 55 12.8 43 6.1 64 64 Calm 29.97 1015 10 16 0.00 0.00
3:53 am 03:53 Clear 54 12.2 43 6.1 67 67 Calm 29.98 1015 10 16 0.00 0.00
4:53 am 04:53 Clear 52 11.1 42 5.6 69 69 N 6 9 29.98 1015 10 16 0.00 0.00
5:53 am 05:53 Clear 52 11.1 43 6.1 72 72 N 3 6 29.99 1016 10 16 0.00 0.00
6:53 am 06:53 Clear 50 10 42 5.6 74 74 Calm 30.00 1016 10 16 0.00 0.00
7:53 am 07:53 Sunny 49 9.4 41 5 74 74 NNE 3 6 30.00 1016 10 16 0.00 0.00
8:53 am 08:53 Sunny 57 13.9 45 7.2 64 64 Calm 30.01 1016 10 16 0.00 0.00
9:53 am 09:53 Sunny 64 17.8 46 7.8 52 52 NNE 5 7 30.02 1017 10 16 0.00 0.00
10:53 am 10:53 Sunny 69 20.6 46 7.8 44 44 Calm 30.01 1016 10 16 0.00 0.00
11:53 am 11:53 Sunny 74 23.3 46 7.8 37 37 Calm 30.01 1016 N/A 0.00 0.00
12:53 pm 12:53 Sunny 76 24.4 46 7.8 35 35 SSW 3 6 29.98 1015 10 16 0.00 0.00
1:53 pm 13:53 Sunny 77 25 45 7.2 32 32 VRB 3 6 29.95 1014 10 16 0.00 0.00
2:53 pm 14:53 Sunny 79 26.1 40 4.4 25 25 S 7 11 29.93 1013 10 16 0.00 0.00
3:53 pm 15:53 Sunny 79 26.1 38 3.3 23 23 SW 6 9 29.92 1013 10 16 0.00 0.00
4:53 pm 16:53 Sunny 79 26.1 35 1.7 20 20 SSE 9 15 29.92 1013 10 16 0.00 0.00
5:53 pm 17:53 Sunny 74 23.3 36 2.2 25 25 SE 6 9 29.92 1013 10 16 0.00 0.00
6:53 pm 18:53 Clear 70 21.1 39 3.9 32 32 S 3 6 29.92 1013 10 16 0.00 0.00
7:53 pm 19:53 Clear 65 18.3 39 3.9 39 39 Calm 29.93 1014 10 16 0.00 0.00
8:53 pm 20:53 Clear 60 15.6 39 3.9 46 46 N 3 6 29.94 1014 10 16 0.00 0.00
9:53 pm 21:53 Clear 60 15.6 39 3.9 46 46 N 3 6 29.95 1014 10 16 0.00 0.00
10:53 pm 22:53 Clear 59 15 40 4.4 49 49 Calm 29.96 1015 10 16 0.00 0.00
11:53 pm 23:53 Clear 58 14.4 39 3.9 50 50 N 5 7 29.96 1015 10 16 0.00 0.00

Powered by AerisWeather